This is the latest recevied weather packets stored in our database for station/object IR9AK-10. If no packets are shown the sender has not sent any weather packets the latest 10 day(s).
| Time | Temp. | Humidity | Pressure | Rain* | Wind** | Luminosity | Snow |
|---|---|---|---|---|---|---|---|
| 1777569369 | 22.22° C | 58% | 1060.3 hPa | - | - | - | - |
| 1777568770 | 22.22° C | 56% | 1060.3 hPa | - | - | - | - |
| 1777568171 | 21.67° C | 56% | 1060.3 hPa | - | - | - | - |
| 1777567572 | 21.67° C | 55% | 1060.3 hPa | - | - | - | - |
| 1777566973 | 21.67° C | 52% | 1060.5 hPa | - | - | - | - |
| 1777566374 | 21.67° C | 57% | 1060.4 hPa | - | - | - | - |
| 1777565775 | 21.67° C | 59% | 1060.4 hPa | - | - | - | - |
| 1777565177 | 21.67° C | 59% | 1060.3 hPa | - | - | - | - |
| 1777564578 | 21.11° C | 59% | 1060.3 hPa | - | - | - | - |
| 1777562758 | 22.22° C | 55% | 1060.4 hPa | - | - | - | - |
| 1777562158 | 22.22° C | 56% | 1060.4 hPa | - | - | - | - |
| 1777561560 | 22.78° C | 53% | 1060.4 hPa | - | - | - | - |
| 1777560961 | 22.22° C | 52% | 1060.2 hPa | - | - | - | - |
| 1777560361 | 22.78° C | 54% | 1060.1 hPa | - | - | - | - |
| 1777559761 | 22.78° C | 53% | 1060.1 hPa | - | - | - | - |
| 1777559162 | 23.33° C | 53% | 1060 hPa | - | - | - | - |
| 1777558562 | 22.22° C | 56% | 1059.9 hPa | - | - | - | - |
| 1777557962 | 21.67° C | 56% | 1060 hPa | - | - | - | - |
| 1777557364 | 21.67° C | 60% | 1060.2 hPa | - | - | - | - |
| 1777556764 | 21.67° C | 58% | 1060.3 hPa | - | - | - | - |
| 1777556166 | 22.22° C | 58% | 1060.3 hPa | - | - | - | - |
| 1777555567 | 21.67° C | 58% | 1060.3 hPa | - | - | - | - |
| 1777554968 | 21.67° C | 59% | 1060.5 hPa | - | - | - | - |
| 1777554370 | 21.67° C | 59% | 1060.6 hPa | - | - | - | - |
| 1777553771 | 21.67° C | 60% | 1060.7 hPa | - | - | - | - |
* Rain since midnight (hover to see other rain measurements)
** Current wind speed in m/s (hover to see current wind gust speed)